UAL155 PKMJ-PHNL

Flight info

Callsign UAL155
Flight time 5h 26m
Altitude 35000
Route MAJ R584 CHOKO OPACA4
Aircraft B738/M-SDE2E3FGHIRWXY/LB1

Departure

Time 2026-04-24 15:35
Airport Marshall Islands International Airport (PKMJ)

Arrival

Time 2026-04-24 21:01
Airport Daniel K. Inouye International Airport (PHNL)
Time Latitude Longitude Altitude Speed Heading
2026-04-24 15:35 7.13727 171.30150 5674 ft 257 kts 63°
2026-04-24 15:35 7.15455 171.33336 7039 ft 264 kts 63°
2026-04-24 15:35 7.16336 171.34971 7719 ft 266 kts 63°
2026-04-24 15:36 7.17221 171.36614 8388 ft 269 kts 63°
2026-04-24 15:36 7.19037 171.39977 9699 ft 276 kts 63°
2026-04-24 15:36 7.19962 171.41686 10245 ft 283 kts 63°
2026-04-24 15:37 7.20937 171.43490 10418 ft 304 kts 63°
2026-04-24 15:37 7.21971 171.45424 10590 ft 323 kts 62°
2026-04-24 15:37 7.23080 171.47431 10742 ft 340 kts 63°
2026-04-24 15:37 7.24258 171.49595 11002 ft 354 kts 62°
2026-04-24 15:38 7.25417 171.51775 11431 ft 358 kts 64°
2026-04-24 15:38 7.26590 171.53993 12035 ft 360 kts 62°
2026-04-24 15:38 7.27846 171.56195 12486 ft 366 kts 61°
2026-04-24 15:38 7.29042 171.58470 13001 ft 367 kts 63°
2026-04-24 15:39 7.30273 171.60729 13536 ft 370 kts 60°
2026-04-24 15:39 7.31538 171.63002 13997 ft 373 kts 63°
2026-04-24 15:39 7.32735 171.65320 14515 ft 373 kts 65°
2026-04-24 15:39 7.33941 171.67658 14823 ft 381 kts 63°
2026-04-24 15:40 7.35277 171.69989 15162 ft 386 kts 60°
2026-04-24 15:40 7.36659 171.72299 15689 ft 386 kts 61°
2026-04-24 15:40 7.37952 171.74691 16011 ft 392 kts 63°
2026-04-24 15:40 7.39307 171.77086 16489 ft 392 kts 61°
2026-04-24 15:41 7.40582 171.79530 16859 ft 397 kts 64°
2026-04-24 15:41 7.41856 171.82010 17220 ft 400 kts 63°
2026-04-24 15:41 7.43174 171.84498 17562 ft 405 kts 63°
2026-04-24 15:41 7.44523 171.87011 17854 ft 410 kts 63°
2026-04-24 15:42 7.45839 171.89570 18169 ft 414 kts 63°
2026-04-24 15:42 7.47231 171.92136 18390 ft 419 kts 62°
2026-04-24 15:42 7.48648 171.94700 18841 ft 417 kts 62°
2026-04-24 15:42 7.50046 171.97269 19128 ft 421 kts 63°
2026-04-24 15:43 7.51448 171.99874 19405 ft 424 kts 62°
2026-04-24 15:43 7.52872 172.02472 19787 ft 424 kts 61°
2026-04-24 15:43 7.54305 172.05093 20029 ft 429 kts 61°
2026-04-24 15:43 7.55741 172.07730 20368 ft 430 kts 61°
2026-04-24 15:44 7.57179 172.10382 20659 ft 432 kts 61°
2026-04-24 15:44 7.58622 172.13046 20975 ft 434 kts 61°
2026-04-24 15:44 7.60058 172.15731 21254 ft 436 kts 61°
2026-04-24 15:44 7.61501 172.18428 21532 ft 438 kts 62°
2026-04-24 15:45 7.62956 172.21136 21815 ft 440 kts 61°
2026-04-24 15:45 7.64433 172.23853 22072 ft 443 kts 60°
2026-04-24 15:45 7.65917 172.26581 22365 ft 444 kts 60°
2026-04-24 15:45 7.67404 172.29320 22608 ft 447 kts 60°
2026-04-24 15:46 7.68896 172.32074 22887 ft 448 kts 60°
2026-04-24 15:46 7.70393 172.34841 23130 ft 451 kts 60°
2026-04-24 15:46 7.71896 172.37621 23391 ft 452 kts 61°
2026-04-24 15:46 7.73400 172.40410 23587 ft 454 kts 60°
2026-04-24 15:47 7.74902 172.43222 23777 ft 456 kts 59°
2026-04-24 15:47 7.76457 172.46015 23973 ft 457 kts 58°
2026-04-24 15:47 7.78041 172.48802 24150 ft 460 kts 60°
2026-04-24 15:47 7.79532 172.51660 24353 ft 461 kts 61°
2026-04-24 15:48 7.81036 172.54522 24547 ft 462 kts 62°
2026-04-24 15:48 7.82517 172.57407 24744 ft 464 kts 63°
2026-04-24 15:48 7.84009 172.60249 24917 ft 465 kts 59°
2026-04-24 15:48 7.85552 172.63122 25100 ft 466 kts 58°
2026-04-24 15:49 7.87135 172.65981 25251 ft 468 kts 62°
2026-04-24 15:49 7.88693 172.68873 25425 ft 470 kts 60°
2026-04-24 15:49 7.90296 172.71749 25609 ft 471 kts 58°
2026-04-24 15:49 7.91819 172.74674 25789 ft 472 kts 63°
2026-04-24 15:50 7.93360 172.77603 25959 ft 473 kts 60°
2026-04-24 15:50 7.94978 172.80502 26096 ft 475 kts 59°
2026-04-24 15:50 7.96559 172.83437 26263 ft 476 kts 62°
2026-04-24 15:50 7.98107 172.86392 26431 ft 478 kts 60°
2026-04-24 15:51 7.99686 172.89357 26576 ft 479 kts 59°
2026-04-24 15:51 8.01336 172.92282 26715 ft 480 kts 59°
2026-04-24 15:51 8.02967 172.95223 26867 ft 481 kts 59°
2026-04-24 15:51 8.04531 172.98216 27033 ft 483 kts 60°
2026-04-24 15:52 8.06145 173.01190 27176 ft 484 kts 59°
2026-04-24 15:52 8.07753 173.04175 27334 ft 485 kts 62°
2026-04-24 15:52 8.09329 173.07191 27397 ft 487 kts 60°
2026-04-24 15:52 8.10851 173.10247 27598 ft 487 kts 62°
2026-04-24 15:53 8.12487 173.13244 27690 ft 489 kts 57°
2026-04-24 15:53 8.14200 173.16205 27852 ft 489 kts 61°
2026-04-24 15:53 8.15796 173.19233 28079 ft 488 kts 60°
2026-04-24 15:53 8.17413 173.22239 28334 ft 487 kts 60°
2026-04-24 15:54 8.19032 173.25241 28524 ft 487 kts 60°
2026-04-24 15:54 8.20650 173.28248 28716 ft 487 kts 61°
2026-04-24 15:54 8.22264 173.31256 28919 ft 487 kts 60°
2026-04-24 15:54 8.23876 173.34262 29147 ft 487 kts 60°
2026-04-24 15:55 8.25485 173.37268 29392 ft 486 kts 60°
2026-04-24 15:55 8.27112 173.40255 29631 ft 485 kts 61°
2026-04-24 15:55 8.28714 173.43256 29847 ft 485 kts 62°
2026-04-24 15:55 8.30313 173.46261 30012 ft 486 kts 60°
2026-04-24 15:56 8.31906 173.49273 30137 ft 488 kts 61°
2026-04-24 15:56 8.33485 173.52250 30363 ft 485 kts 58°
2026-04-24 15:56 8.35088 173.55244 30581 ft 486 kts 61°
2026-04-24 15:56 8.36652 173.58283 30665 ft 488 kts 62°
2026-04-24 15:57 8.38252 173.61306 30816 ft 489 kts 60°
2026-04-24 15:57 8.39907 173.64316 30986 ft 490 kts 59°
2026-04-24 15:57 8.41002 173.66352 31215 ft 487 kts 61°
2026-04-24 15:57 8.43097 173.70368 31423 ft 488 kts 62°
2026-04-24 15:58 8.44720 173.73370 31686 ft 487 kts 60°
2026-04-24 15:58 8.46416 173.76335 31835 ft 488 kts 59°
2026-04-24 15:58 8.48114 173.79287 32139 ft 485 kts 60°
2026-04-24 15:58 8.49653 173.82323 32320 ft 486 kts 65°
2026-04-24 15:59 8.51130 173.85379 32623 ft 483 kts 62°
2026-04-24 15:59 8.52688 173.88390 32773 ft 484 kts 59°
2026-04-24 15:59 8.54428 173.91297 33014 ft 483 kts 59°
2026-04-24 15:59 8.56048 173.94258 33388 ft 479 kts 63°
2026-04-24 16:00 8.57576 173.97218 33870 ft 472 kts 65°
2026-04-24 16:00 8.59076 174.00159 34079 ft 471 kts 63°
2026-04-24 16:00 8.60632 174.03081 34210 ft 473 kts 60°
2026-04-24 16:00 8.62274 174.05958 34338 ft 474 kts 61°
2026-04-24 16:01 8.63873 174.08872 34517 ft 473 kts 62°
2026-04-24 16:01 8.65424 174.11804 34690 ft 473 kts 63°
2026-04-24 16:01 8.68468 174.17645 34809 ft 468 kts 63°
2026-04-24 16:02 8.71026 174.22496 34876 ft 473 kts 62°
2026-04-24 16:02 8.74052 174.28436 34875 ft 478 kts 62°
2026-04-24 16:03 8.77273 174.34354 34883 ft 482 kts 61°
2026-04-24 16:03 8.80550 174.40304 34881 ft 486 kts 61°
2026-04-24 16:04 8.83814 174.46293 34876 ft 486 kts 62°
2026-04-24 16:04 8.86866 174.52373 34868 ft 484 kts 63°
2026-04-24 16:05 8.91639 174.61334 34897 ft 481 kts 61°
2026-04-24 16:06 8.96333 174.70306 34868 ft 480 kts 61°
2026-04-24 16:07 9.01320 174.79050 34898 ft 478 kts 63°
2026-04-24 16:07 9.05877 174.88062 34869 ft 480 kts 62°
2026-04-24 16:08 9.10596 174.97076 34867 ft 487 kts 59°
2026-04-24 16:09 9.15391 175.06195 34894 ft 490 kts 60°
2026-04-24 16:09 9.18649 175.12254 34864 ft 489 kts 62°
2026-04-24 16:11 9.26535 175.27304 34875 ft 481 kts 63°
2026-04-24 16:11 9.29665 175.33245 34883 ft 482 kts 58°
2026-04-24 16:12 9.34671 175.42128 34867 ft 485 kts 59°
2026-04-24 16:13 9.39320 175.51230 34895 ft 484 kts 62°
2026-04-24 16:14 9.45519 175.63257 34891 ft 479 kts 61°
2026-04-24 16:14 9.50252 175.72236 34884 ft 485 kts 60°
2026-04-24 16:15 9.55038 175.81330 34894 ft 488 kts 59°
2026-04-24 16:16 9.59781 175.90361 34884 ft 480 kts 61°
2026-04-24 16:17 9.67583 176.05229 34888 ft 482 kts 60°
2026-04-24 16:18 9.73924 176.17319 34888 ft 487 kts 61°
2026-04-24 16:19 9.78645 176.26338 34895 ft 477 kts 60°
2026-04-24 16:20 9.83262 176.35159 34893 ft 473 kts 61°
2026-04-24 16:20 9.87921 176.44063 34893 ft 480 kts 59°
2026-04-24 16:21 9.92646 176.53103 34894 ft 486 kts 62°
2026-04-24 16:22 9.95795 176.59140 34895 ft 483 kts 59°
2026-04-24 16:22 10.00470 176.68104 34902 ft 476 kts 60°
2026-04-24 16:23 10.03580 176.74063 34906 ft 479 kts 60°
2026-04-24 16:24 10.08291 176.83099 34898 ft 486 kts 59°
2026-04-24 16:24 10.11450 176.89157 34893 ft 484 kts 62°
2026-04-24 16:25 10.14577 176.95171 34901 ft 479 kts 60°
2026-04-24 16:25 10.17668 177.01124 34905 ft 475 kts 59°
2026-04-24 16:26 10.22330 177.10080 34904 ft 483 kts 60°
2026-04-24 16:27 10.27062 177.19191 34912 ft 489 kts 60°
2026-04-24 16:27 10.30232 177.25301 34907 ft 488 kts 61°
2026-04-24 16:28 10.33384 177.31378 34904 ft 484 kts 61°
2026-04-24 16:28 10.38056 177.40396 34903 ft 478 kts 60°
2026-04-24 16:29 10.41154 177.46374 34906 ft 480 kts 60°
2026-04-24 16:30 10.47407 177.58451 34914 ft 489 kts 62°
2026-04-24 16:30 10.50567 177.64562 34906 ft 487 kts 60°
2026-04-24 16:31 10.53690 177.70604 34888 ft 479 kts 60°
2026-04-24 16:31 10.56765 177.76561 34894 ft 475 kts 60°
2026-04-24 16:32 10.59857 177.82547 34921 ft 481 kts 60°
2026-04-24 16:32 10.62989 177.88613 34916 ft 487 kts 60°
2026-04-24 16:33 10.66144 177.94731 34912 ft 490 kts 60°
2026-04-24 16:33 10.69311 178.00876 34910 ft 491 kts 60°
2026-04-24 16:34 10.72479 178.07028 34908 ft 491 kts 60°
2026-04-24 16:34 10.75639 178.13168 34903 ft 489 kts 60°
2026-04-24 16:35 10.78789 178.19291 34905 ft 487 kts 60°
2026-04-24 16:35 10.81924 178.25388 34908 ft 486 kts 60°
2026-04-24 16:36 10.85047 178.31464 34903 ft 484 kts 60°
2026-04-24 16:36 10.88155 178.37518 34910 ft 482 kts 60°
2026-04-24 16:37 10.91257 178.43561 34913 ft 481 kts 60°
2026-04-24 16:37 10.94351 178.49590 34906 ft 481 kts 60°
2026-04-24 16:38 10.97443 178.55622 34917 ft 481 kts 60°
2026-04-24 16:38 11.00544 178.61674 34918 ft 483 kts 60°
2026-04-24 16:39 11.03637 178.67713 34919 ft 485 kts 60°
2026-04-24 16:39 11.06759 178.73814 34920 ft 487 kts 60°
2026-04-24 16:40 11.09896 178.79946 34918 ft 489 kts 60°
2026-04-24 16:40 11.13042 178.86103 34914 ft 490 kts 60°
2026-04-24 16:41 11.16193 178.92272 34926 ft 491 kts 60°
2026-04-24 16:41 11.19347 178.98451 34916 ft 491 kts 60°
2026-04-24 16:42 11.22495 179.04621 34908 ft 491 kts 60°
2026-04-24 16:42 11.25641 179.10792 34922 ft 490 kts 60°
2026-04-24 16:43 11.28780 179.16952 34923 ft 489 kts 60°
2026-04-24 16:43 11.31909 179.23097 34929 ft 488 kts 60°
2026-04-24 16:44 11.35034 179.29238 34919 ft 487 kts 60°
2026-04-24 16:44 11.38150 179.35365 34928 ft 487 kts 60°
2026-04-24 16:45 11.41266 179.41494 34929 ft 487 kts 60°
2026-04-24 16:45 11.44382 179.47628 34921 ft 487 kts 60°
2026-04-24 16:46 11.47477 179.53725 34922 ft 488 kts 60°
2026-04-24 16:46 11.50596 179.59875 34920 ft 488 kts 60°
2026-04-24 16:47 11.53717 179.66030 34921 ft 489 kts 60°
2026-04-24 16:47 11.56845 179.72204 34933 ft 490 kts 60°
2026-04-24 16:48 11.59971 179.78377 34921 ft 490 kts 60°
2026-04-24 16:48 11.62571 179.83517 34921 ft 491 kts 60°
2026-04-24 16:49 11.65703 179.89711 34932 ft 491 kts 60°
2026-04-24 16:49 11.68832 179.95902 34920 ft 491 kts 60°
2026-04-24 16:50 11.71971 -179.97906 34939 ft 491 kts 59°
2026-04-24 16:50 11.75189 -179.91762 34929 ft 491 kts 59°
2026-04-24 16:51 11.78428 -179.85636 34930 ft 490 kts 59°
2026-04-24 16:51 11.81652 -179.79513 34929 ft 490 kts 59°
2026-04-24 16:52 11.84864 -179.73387 34931 ft 489 kts 59°
2026-04-24 16:52 11.88069 -179.67265 34930 ft 488 kts 59°
2026-04-24 16:53 11.91269 -179.61148 34937 ft 488 kts 59°
2026-04-24 16:53 11.94462 -179.55040 34935 ft 488 kts 59°
2026-04-24 16:54 11.97655 -179.48931 34939 ft 487 kts 59°
2026-04-24 16:54 12.00846 -179.42821 34932 ft 488 kts 59°
2026-04-24 16:55 12.04036 -179.36708 34939 ft 488 kts 59°
2026-04-24 16:55 12.07227 -179.30590 34934 ft 488 kts 59°
2026-04-24 16:56 12.10419 -179.24466 34940 ft 489 kts 59°
2026-04-24 16:56 12.13616 -179.18329 34935 ft 489 kts 59°
2026-04-24 16:57 12.16816 -179.12181 34939 ft 490 kts 59°
2026-04-24 16:57 12.20015 -179.06030 34943 ft 491 kts 59°
2026-04-24 16:58 12.23197 -178.99909 34939 ft 491 kts 59°
2026-04-24 16:58 12.26402 -178.93738 34940 ft 491 kts 59°
2026-04-24 16:59 12.29607 -178.87564 34942 ft 492 kts 59°
2026-04-24 17:00 12.34411 -178.78302 34944 ft 491 kts 59°
2026-04-24 17:00 12.39207 -178.69046 34947 ft 490 kts 59°
2026-04-24 17:01 12.43995 -178.59797 34944 ft 490 kts 59°
2026-04-24 17:02 12.48783 -178.50538 34951 ft 490 kts 59°
2026-04-24 17:02 12.51969 -178.44370 34952 ft 490 kts 59°
2026-04-24 17:03 12.56751 -178.35107 34953 ft 491 kts 59°
2026-04-24 17:04 12.59940 -178.28924 34951 ft 491 kts 59°
2026-04-24 17:04 12.64726 -178.19636 34956 ft 492 kts 59°
2026-04-24 17:05 12.67915 -178.13441 34958 ft 492 kts 59°
2026-04-24 17:06 12.72701 -178.04138 34951 ft 493 kts 59°
2026-04-24 17:06 12.77489 -177.94820 34960 ft 493 kts 59°
2026-04-24 17:07 12.80665 -177.88635 34955 ft 494 kts 59°
2026-04-24 17:08 12.87062 -177.76161 34956 ft 494 kts 59°
2026-04-24 17:08 12.90261 -177.69917 34959 ft 495 kts 59°
2026-04-24 17:09 12.96657 -177.57418 34959 ft 495 kts 59°
2026-04-24 17:10 13.03056 -177.44895 34959 ft 496 kts 59°
2026-04-24 17:12 13.15837 -177.19830 34963 ft 496 kts 59°
2026-04-24 18:54 19.05311 -164.23210 35100 ft 485 kts 64°
2026-04-24 18:55 19.09250 -164.13359 35103 ft 485 kts 64°
2026-04-24 18:56 19.11874 -164.06786 35100 ft 485 kts 64°
2026-04-24 18:56 19.14497 -164.00210 35111 ft 485 kts 64°
2026-04-24 18:57 19.17099 -163.93675 35102 ft 485 kts 64°
2026-04-24 18:57 19.19718 -163.87093 35104 ft 486 kts 64°
2026-04-24 18:58 19.22334 -163.80509 35105 ft 486 kts 64°
2026-04-24 18:58 19.24949 -163.73919 35111 ft 486 kts 64°
2026-04-24 18:59 19.27563 -163.67325 35102 ft 486 kts 64°
2026-04-24 18:59 19.30175 -163.60724 35106 ft 486 kts 64°
2026-04-24 19:00 19.32786 -163.54120 35107 ft 486 kts 64°
2026-04-24 19:00 19.35395 -163.47514 35111 ft 486 kts 64°
2026-04-24 19:01 19.38003 -163.40903 35119 ft 487 kts 64°
2026-04-24 19:01 19.40609 -163.34286 35109 ft 487 kts 64°
2026-04-24 19:02 19.42774 -163.28785 35117 ft 487 kts 64°
2026-04-24 19:02 19.45815 -163.21046 35110 ft 487 kts 64°
2026-04-24 19:03 19.48417 -163.14415 35110 ft 487 kts 64°
2026-04-24 19:03 19.51015 -163.07786 35110 ft 487 kts 64°
2026-04-24 19:04 19.53609 -163.01160 35113 ft 487 kts 64°
2026-04-24 19:04 19.56201 -162.94531 35117 ft 487 kts 65°
2026-04-24 19:05 19.58773 -162.87943 35115 ft 487 kts 65°
2026-04-24 19:05 19.61358 -162.81315 35115 ft 486 kts 65°
2026-04-24 19:06 19.63941 -162.74681 35116 ft 486 kts 65°
2026-04-24 19:06 19.66526 -162.68054 35114 ft 486 kts 64°
2026-04-24 19:07 19.69174 -162.61456 35115 ft 486 kts 64°
2026-04-24 19:07 19.71389 -162.55984 35116 ft 486 kts 64°
2026-04-24 19:08 19.74495 -162.48279 35114 ft 486 kts 64°
2026-04-24 19:08 19.77143 -162.41679 35117 ft 486 kts 64°
2026-04-24 19:09 19.79786 -162.35078 35115 ft 486 kts 64°
2026-04-24 19:09 19.82425 -162.28478 35116 ft 486 kts 64°
2026-04-24 19:10 19.85062 -162.21875 35122 ft 486 kts 64°
2026-04-24 19:10 19.87698 -162.15268 35120 ft 486 kts 64°
2026-04-24 19:11 19.90333 -162.08654 35123 ft 486 kts 64°
2026-04-24 19:11 19.92949 -162.02081 35116 ft 486 kts 64°
2026-04-24 19:12 19.95580 -161.95460 35120 ft 486 kts 64°
2026-04-24 19:12 19.98208 -161.88838 35124 ft 486 kts 64°
2026-04-24 19:13 19.99968 -161.84401 35119 ft 486 kts 64°
2026-04-24 19:13 20.03463 -161.75575 35117 ft 486 kts 64°
2026-04-24 19:14 20.05661 -161.70015 35119 ft 487 kts 64°
2026-04-24 19:14 20.08281 -161.63383 35120 ft 486 kts 64°
2026-04-24 19:15 20.10881 -161.56792 35121 ft 486 kts 64°
2026-04-24 19:15 20.13497 -161.50151 35123 ft 486 kts 64°
2026-04-24 19:16 20.17416 -161.40187 35121 ft 487 kts 64°
2026-04-24 19:16 20.20026 -161.33542 35120 ft 486 kts 64°
2026-04-24 19:17 20.22629 -161.26904 35122 ft 486 kts 64°
2026-04-24 19:17 20.25232 -161.20260 35124 ft 486 kts 64°
2026-04-24 19:18 20.27828 -161.13622 35125 ft 486 kts 64°
2026-04-24 19:18 20.30424 -161.06978 35123 ft 485 kts 64°
2026-04-24 19:19 20.33015 -161.00335 35119 ft 485 kts 64°
2026-04-24 19:19 20.35601 -160.93698 35122 ft 485 kts 64°
2026-04-24 19:20 20.38169 -160.87049 35125 ft 486 kts 66°
2026-04-24 19:20 20.40383 -160.80281 35127 ft 487 kts 69°
2026-04-24 19:21 20.42130 -160.73295 35130 ft 489 kts 75°
2026-04-24 19:21 20.43561 -160.66151 35134 ft 489 kts 76°
2026-04-24 19:22 20.44984 -160.59112 35135 ft 489 kts 75°
2026-04-24 19:22 20.46478 -160.52036 35125 ft 489 kts 75°
2026-04-24 19:23 20.47996 -160.44971 35128 ft 489 kts 75°
2026-04-24 19:23 20.49515 -160.37907 35121 ft 489 kts 75°
2026-04-24 19:24 20.51029 -160.30835 35122 ft 489 kts 75°
2026-04-24 19:24 20.52537 -160.23768 35126 ft 489 kts 75°
2026-04-24 19:25 20.54042 -160.16694 35125 ft 489 kts 75°
2026-04-24 19:25 20.55546 -160.09617 35127 ft 489 kts 75°
2026-04-24 19:26 20.57049 -160.02527 35135 ft 489 kts 75°
2026-04-24 19:26 20.58548 -159.95439 35123 ft 490 kts 75°
2026-04-24 19:27 20.60044 -159.88349 35129 ft 490 kts 75°
2026-04-24 19:27 20.61530 -159.81295 35125 ft 490 kts 75°
2026-04-24 19:28 20.62386 -159.77226 35122 ft 490 kts 75°
2026-04-24 20:39 20.63670 -159.71111 35120 ft 490 kts 75°
2026-04-24 20:40 20.65157 -159.64012 35129 ft 490 kts 75°
2026-04-24 20:40 20.66630 -159.56965 34853 ft 480 kts 75°
2026-04-24 20:41 20.67354 -159.53496 34277 ft 479 kts 76°
2026-04-24 20:41 20.68082 -159.50011 33545 ft 482 kts 75°
2026-04-24 20:41 20.68814 -159.46503 32763 ft 485 kts 75°
2026-04-24 20:41 20.69537 -159.43030 32091 ft 486 kts 75°
2026-04-24 20:42 20.70266 -159.39518 31494 ft 484 kts 75°
2026-04-24 20:42 20.70993 -159.36015 30887 ft 482 kts 75°
2026-04-24 20:42 20.71716 -159.32525 30283 ft 481 kts 75°
2026-04-24 20:42 20.72436 -159.29052 29687 ft 476 kts 76°
2026-04-24 20:43 20.73145 -159.25621 29163 ft 470 kts 75°
2026-04-24 20:43 20.73846 -159.22225 28649 ft 464 kts 75°
2026-04-24 20:43 20.74536 -159.18879 28102 ft 460 kts 76°
2026-04-24 20:43 20.75222 -159.15558 27553 ft 455 kts 76°
2026-04-24 20:44 20.75901 -159.12274 27015 ft 451 kts 75°
2026-04-24 20:44 20.76571 -159.09016 26501 ft 447 kts 76°
2026-04-24 20:44 20.77237 -159.05786 25998 ft 442 kts 77°
2026-04-24 20:44 20.77892 -159.02592 25502 ft 438 kts 77°
2026-04-24 20:45 20.78541 -158.99428 25013 ft 434 kts 76°
2026-04-24 20:45 20.79183 -158.96298 24539 ft 429 kts 77°
2026-04-24 20:45 20.79820 -158.93192 24082 ft 425 kts 77°
2026-04-24 20:45 20.80451 -158.90118 23610 ft 421 kts 77°
2026-04-24 20:46 20.81073 -158.87073 23078 ft 417 kts 77°
2026-04-24 20:46 20.81690 -158.84054 22515 ft 415 kts 75°
2026-04-24 20:46 20.82301 -158.81058 22015 ft 410 kts 76°
2026-04-24 20:46 20.82906 -158.78088 21454 ft 408 kts 77°
2026-04-24 20:47 20.83510 -158.75132 20940 ft 405 kts 75°
2026-04-24 20:47 20.84100 -158.72234 20426 ft 403 kts 77°
2026-04-24 20:47 20.84691 -158.69322 19941 ft 400 kts 75°
2026-04-24 20:47 20.85280 -158.66426 19437 ft 398 kts 76°
2026-04-24 20:48 20.85866 -158.63546 18958 ft 395 kts 76°
2026-04-24 20:48 20.86445 -158.60687 18486 ft 393 kts 75°
2026-04-24 20:48 20.87019 -158.57841 17961 ft 390 kts 76°
2026-04-24 20:48 20.87591 -158.55016 17445 ft 386 kts 76°
2026-04-24 20:49 20.88151 -158.52244 16759 ft 379 kts 75°
2026-04-24 20:49 20.88708 -158.49495 15893 ft 378 kts 76°
2026-04-24 20:49 20.89264 -158.46747 15093 ft 376 kts 75°
2026-04-24 20:49 20.89812 -158.44034 14484 ft 369 kts 75°
2026-04-24 20:50 20.90342 -158.41405 14175 ft 354 kts 75°
2026-04-24 20:50 20.90851 -158.38871 13804 ft 343 kts 74°
2026-04-24 20:50 20.91341 -158.36433 13551 ft 328 kts 75°
2026-04-24 20:50 20.91813 -158.34086 13226 ft 317 kts 74°
2026-04-24 20:51 20.92268 -158.31823 12930 ft 307 kts 75°
2026-04-24 20:51 20.92719 -158.29588 12299 ft 309 kts 73°
2026-04-24 20:51 20.93182 -158.27363 11872 ft 303 kts 69°
2026-04-24 20:51 20.94138 -158.25407 11318 ft 296 kts 43°
2026-04-24 20:52 20.95756 -158.24136 10893 ft 287 kts 24°
2026-04-24 20:52 20.97657 -158.23536 10320 ft 287 kts
2026-04-24 20:52 20.99640 -158.23394 9851 ft 284 kts
2026-04-24 20:52 21.01630 -158.23314 9203 ft 287 kts
2026-04-24 20:53 21.03611 -158.23245 8933 ft 282 kts
2026-04-24 20:53 21.05566 -158.23173 8583 ft 283 kts
2026-04-24 20:53 21.07520 -158.23096 8344 ft 279 kts
2026-04-24 20:53 21.09467 -158.23015 7998 ft 280 kts
2026-04-24 20:54 21.10750 -158.22960 7864 ft 277 kts
2026-04-24 20:54 21.12668 -158.22876 7571 ft 277 kts
2026-04-24 20:54 21.14595 -158.22790 7277 ft 276 kts
2026-04-24 20:54 21.16518 -158.22703 6962 ft 276 kts
2026-04-24 20:55 21.19050 -158.22588 6648 ft 272 kts
2026-04-24 20:55 21.20945 -158.22500 6305 ft 273 kts
2026-04-24 20:55 21.22197 -158.22242 6034 ft 272 kts 22°
2026-04-24 20:55 21.24070 -158.20427 5074 ft 287 kts 59°
2026-04-24 20:56 21.24764 -158.19187 4756 ft 285 kts 59°
2026-04-24 20:56 21.25782 -158.17403 4371 ft 276 kts 58°
2026-04-24 20:56 21.26787 -158.15689 4021 ft 267 kts 58°
2026-04-24 20:56 21.27774 -158.14041 3692 ft 258 kts 57°
2026-04-24 20:57 21.28727 -158.12472 3374 ft 250 kts 57°
2026-04-24 20:57 21.29667 -158.10934 3066 ft 243 kts 57°
2026-04-24 20:57 21.30584 -158.09438 2760 ft 237 kts 57°
2026-04-24 20:57 21.31471 -158.07993 2511 ft 226 kts 57°
2026-04-24 20:58 21.32262 -158.06610 2222 ft 209 kts 68°
2026-04-24 20:58 21.32531 -158.05170 2019 ft 190 kts 85°
2026-04-24 20:58 21.32546 -158.03802 1779 ft 176 kts 87°
2026-04-24 20:58 21.32538 -158.02529 1543 ft 165 kts 86°
2026-04-24 20:59 21.32533 -158.01346 1368 ft 150 kts 87°
2026-04-24 20:59 21.32530 -158.00273 1150 ft 137 kts 84°
2026-04-24 20:59 21.32529 -157.99239 978 ft 139 kts 87°
2026-04-24 20:59 21.32528 -157.98159 783 ft 145 kts 87°
2026-04-24 21:00 21.32526 -157.97104 591 ft 133 kts 87°
2026-04-24 21:00 21.32527 -157.96121 377 ft 132 kts 85°
2026-04-24 21:00 21.32533 -157.95095 211 ft 143 kts 86°
2026-04-24 21:00 21.32522 -157.94034 29 ft 137 kts 86°
2026-04-24 21:01 21.32527 -157.93115 27 ft 104 kts 91°
2026-04-24 21:01 21.32526 -157.92499 23 ft 61 kts 90°
2026-04-24 21:01 21.32579 -157.92228 26 ft 31 kts 59°
2026-04-24 21:01 21.32672 -157.92059 23 ft 24 kts 59°
2026-04-24 21:02 21.32728 -157.91955 23 ft 10 kts 60°
2026-04-24 21:02 21.32756 -157.91893 23 ft 9 kts 69°
2026-04-24 21:02 21.32775 -157.91830 23 ft 9 kts 72°
2026-04-24 21:02 21.32826 -157.91819 23 ft 9 kts 351°
2026-04-24 21:03 21.32888 -157.91829 24 ft 9 kts 352°
2026-04-24 21:03 21.32952 -157.91829 26 ft 10 kts
2026-04-24 21:03 21.33025 -157.91816 25 ft 11 kts
2026-04-24 21:03 21.33059 -157.91810 23 ft 2 kts
2026-04-24 21:04 21.33069 -157.91809 24 ft 0 kts